Home   Weather   Kiritimati   Past weeks

Flag for Kiribati Past Weather in Kiritimati, Christmas Island, Kiribati — Yesterday and Last 2 Weeks

Now
82 °F

Scattered clouds.


Feels Like: 91 °F
Forecast: 79 / 84 °F
Wind: 9 mph from Southeast

Location: Christmas / Cassidy

Current Time: Apr 26, 2017 at 8:36:08 am

Latest Report: Apr 26, 2017 at 8:00 am


Visibility: N/A

Pressure: 29.83 "Hg

Humidity: 84%

Dew Point: 77 °F

Location of KiritimatiLocation

Past Weather in Kiritimati — Graph

°F

Kiritimati Temperature Yesterday

Maximum temperature yesterday: 88 °F (at 2:00 pm)
Minimum temperature yesterday: 77 °F (at 12:00 am)
Average temperature yesterday: 82 °F

High & Low Weather Summary for the Past Weeks

 TemperatureHumidityPressure
High97 °F (Apr 21, 12:00 pm)100% (Apr 14, 5:00 pm)29.92 "Hg (Apr 14, 5:00 pm)
Low77 °F (Apr 13, 5:00 am)62% (Apr 16, 1:00 pm)29.68 "Hg (Apr 11, 4:00 pm)
Average82 °F84%29.79 "Hg
* Reported Apr 11 8:00 am — Apr 26 7:00 am, Kiritimati, Weather by CustomWeather, © 2017

Note: Actual official high and low records may vary slightly from our data, if they occured in-between our weather recording intervals... More about our weather records

Advertising

Kiritimati Weather History for the Previous 24 Hours

Scroll right to see more
 ConditionsComfort  
Time TempWeatherWind HumidityBarometerVisibility
7:00 am
Wed, Apr 26
81 °FPassing clouds.2 mph89%29.80 "HgN/A
6:00 am81 °FPassing clouds.5 mph84%29.80 "HgN/A
5:00 am81 °FPassing clouds.9 mph84%29.77 "HgN/A
4:00 am81 °FPassing clouds.9 mph84%29.77 "HgN/A
3:00 am81 °FPassing clouds.7 mph84%29.77 "HgN/A
2:00 am81 °FPassing clouds.7 mph84%29.80 "HgN/A
1:00 am81 °FPassing clouds.5 mph89%29.83 "HgN/A
12:00 am81 °FPassing clouds.5 mph89%29.86 "HgN/A
11:00 pm
Tue, Apr 25
79 °FPassing clouds.7 mph94%29.86 "HgN/A
10:00 pm79 °FSprinkles. Passing clouds.9 mph89%29.86 "HgN/A
9:00 pm79 °FPartly cloudy.5 mph94%29.83 "HgN/A
8:00 pm81 °FPartly cloudy.9 mph94%29.80 "HgN/A
7:00 pm79 °FPassing clouds.2 mph94%29.74 "HgN/A
6:00 pm82 °FPassing clouds.14 mph84%29.74 "HgN/A
5:00 pm86 °FPassing clouds.12 mph75%29.74 "HgN/A
4:00 pm86 °FScattered clouds.14 mph75%29.74 "HgN/A
3:00 pm86 °FScattered clouds.14 mph75%29.74 "HgN/A
2:00 pm88 °FScattered showers. Scattered clouds.18 mph70%29.74 "HgN/A
1:00 pm86 °FPartly sunny.12 mph79%29.77 "HgN/A
12:00 pm86 °FPartly sunny.12 mph75%29.80 "HgN/A
11:00 am86 °FScattered clouds.14 mph79%29.83 "HgN/A
9:00 am84 °FPassing clouds.12 mph79%29.83 "HgN/A
8:00 am82 °FPassing clouds.12 mph84%29.80 "HgN/A
Weather by CustomWeather, © 2017

See weather overviewHow to use our weather pages